Time,TemperatureF,DewpointF,PressureIn,WindDirection,WindDirectionDegrees,WindSpeedMPH,WindSpeedGustMPH,Humidity,HourlyPrecipIn,Conditions,Clouds,dailyrainin,SoftwareType,DateUTC
2013-06-13 00:03:00,73.8,43.7,28.94,West,279,0.0,0.0,34,0.00,,---,0.00,VWS V14.01,2013-06-13 05:03:00,
2013-06-13 00:09:00,73.6,43.5,28.97,NE,35,0.0,0.0,34,0.00,,---,0.00,VWS V14.01,2013-06-13 05:09:00,
2013-06-13 00:14:00,73.2,44.0,28.97,North,353,0.0,0.0,35,0.00,,---,0.00,VWS V14.01,2013-06-13 05:14:00,
2013-06-13 00:20:00,72.5,43.3,28.97,NNW,338,0.0,0.0,35,0.00,,---,0.00,VWS V14.01,2013-06-13 05:20:00,
2013-06-13 00:26:00,72.3,43.2,28.97,NE,47,0.0,0.0,35,0.00,,---,0.00,VWS V14.01,2013-06-13 05:26:00,
2013-06-13 00:32:00,71.8,41.9,28.97,North,11,0.0,0.0,34,0.00,,---,0.00,VWS V14.01,2013-06-13 05:32:00,
2013-06-13 00:37:00,71.6,41.8,28.97,NNW,341,0.0,0.0,34,0.00,,---,0.00,VWS V14.01,2013-06-13 05:37:00,
2013-06-13 00:43:00,71.6,41.8,28.97,NNW,327,0.0,0.0,34,0.00,,---,0.00,VWS V14.01,2013-06-13 05:43:00,
2013-06-13 00:48:00,70.7,41.7,28.97,SW,219,0.0,2.2,35,0.00,,---,0.00,VWS V14.01,2013-06-13 05:48:00,
2013-06-13 00:54:00,70.3,41.4,28.97,NE,49,0.0,0.0,35,0.00,,---,0.00,VWS V14.01,2013-06-13 05:54:00,
2013-06-13 01:00:00,70.0,41.1,28.97,NE,40,0.0,0.0,35,0.00,,---,0.00,VWS V14.01,2013-06-13 06:00:00,
2013-06-13 01:06:00,69.8,40.9,29.00,NE,40,0.0,0.0,35,0.00,,---,0.00,VWS V14.01,2013-06-13 06:06:00,
2013-06-13 01:11:00,69.4,41.3,29.00,NE,36,0.0,0.0,36,0.00,,---,0.00,VWS V14.01,2013-06-13 06:11:00,
2013-06-13 01:16:00,69.3,41.2,29.00,NE,38,0.0,0.0,36,0.00,,---,0.00,VWS V14.01,2013-06-13 06:16:00,
2013-06-13 01:22:00,68.7,41.4,28.97,South,176,0.0,0.0,37,0.00,,---,0.00,VWS V14.01,2013-06-13 06:22:00,
2013-06-13 01:28:00,68.5,40.5,28.97,North,1,0.0,4.0,36,0.00,,---,0.00,VWS V14.01,2013-06-13 06:28:00,
2013-06-13 01:34:00,68.2,41.6,29.00,NNE,20,0.0,0.0,38,0.00,,---,0.00,VWS V14.01,2013-06-13 06:34:00,
2013-06-13 01:40:00,67.8,41.3,29.00,North,10,4.9,4.9,38,0.00,,---,0.00,VWS V14.01,2013-06-13 06:40:00,
2013-06-13 01:46:00,67.8,41.3,29.00,NNE,19,0.0,0.0,38,0.00,,---,0.00,VWS V14.01,2013-06-13 06:46:00,
2013-06-13 01:51:00,67.5,42.3,29.00,NNE,29,0.0,0.0,40,0.00,,---,0.00,VWS V14.01,2013-06-13 06:51:00,
2013-06-13 01:57:00,66.9,42.5,29.00,NNE,22,0.0,0.0,41,0.00,,---,0.00,VWS V14.01,2013-06-13 06:57:00,
2013-06-13 02:03:00,66.7,42.9,29.00,NNW,338,0.0,0.0,42,0.00,,---,0.00,VWS V14.01,2013-06-13 07:03:00,
2013-06-13 02:08:00,66.6,43.4,29.00,NNW,338,0.0,0.0,43,0.00,,---,0.00,VWS V14.01,2013-06-13 07:08:00,
2013-06-13 02:14:00,66.4,43.2,29.00,North,9,0.0,0.0,43,0.00,,---,0.00,VWS V14.01,2013-06-13 07:14:00,
2013-06-13 02:19:00,66.2,43.7,29.00,NE,44,0.0,0.0,44,0.00,,---,0.00,VWS V14.01,2013-06-13 07:19:00,
2013-06-13 02:25:00,66.0,44.1,29.00,NNE,27,0.0,0.0,45,0.00,,---,0.00,VWS V14.01,2013-06-13 07:25:00,
2013-06-13 02:30:00,65.8,43.9,29.00,North,8,0.0,0.0,45,0.00,,---,0.00,VWS V14.01,2013-06-13 07:30:00,
2013-06-13 02:35:00,65.5,44.2,29.00,North,357,0.0,0.0,46,0.00,,---,0.00,VWS V14.01,2013-06-13 07:35:00,
2013-06-13 02:40:00,65.5,44.2,29.00,NNE,15,0.0,0.0,46,0.00,,---,0.00,VWS V14.01,2013-06-13 07:40:00,
2013-06-13 02:46:00,65.1,44.4,29.00,ENE,73,0.0,0.0,47,0.00,,---,0.00,VWS V14.01,2013-06-13 07:46:00,
2013-06-13 02:52:00,65.1,44.4,29.00,ENE,63,0.0,0.0,47,0.00,,---,0.00,VWS V14.01,2013-06-13 07:52:00,
2013-06-13 02:57:00,64.8,44.6,29.00,NNE,22,0.0,0.0,48,0.00,,---,0.00,VWS V14.01,2013-06-13 07:57:00,
2013-06-13 03:03:00,64.6,44.5,29.00,NNE,21,0.0,0.0,48,0.00,,---,0.00,VWS V14.01,2013-06-13 08:03:00,
2013-06-13 03:08:00,64.6,45.0,29.00,SSW,199,0.0,0.0,49,0.00,,---,0.00,VWS V14.01,2013-06-13 08:08:00,
2013-06-13 03:14:00,64.4,44.8,29.00,NNE,14,0.0,0.0,49,0.00,,---,0.00,VWS V14.01,2013-06-13 08:14:00,